Location: Buckeye Ditch
(40.9104°N, 122.9517°W)
Time: 19:40:18
(UTC+00:00)

BlueWalker 3 - Pass Details

Date: 23 June 2024
Orbit: 480 x 491 km, 53.2° (Epoch: 24 July)

Event Time Altitude Azimuth Distance (km) Brightness Sun altitude
Rises 05:31:36 0° 275° (W) 2,539 6.2 -15.4°
Reaches altitude 10° 05:34:16 10° 295° (WNW) 1,659 5.6 -15.7°
Maximum altitude 05:36:58 18° 341° (NNW) 1,225 4.9 -16.0°
Drops below altitude 10° 05:39:39 10° 27° (NNE) 1,659 4.9 -16.3°
Sets 05:42:19 0° 46° (NE) 2,539 5.6 -16.6°
